Lid_Strength_Index
0 -1 -1 -1 -1 -1 -1 -1 -1 -1 -1 -1 -1 -1 -1 -1 -1 -1 -1 -1 -1 -1 -1 -1 -1 -1 -1 -1 -1 -1 -1 -1 -1 -1 -2 -1 -1 -1 -1 -1 -1 -1 -2
-1 -1 -1 -1 -1 -1 -1 -1 -1 -1 -1 -1 -1 -1 -1 -1 -1 -1 -1 -1 -1 -1 -1 -1 -1 -1 -1 -1 -1 -1 -1 -1 -1 -2 -2 -2 -2 -2 -1 -2 -1 -1 -2
0 -1 -1 -1 -2 -1 -1 -1 -1 -1 -1 -1 -1 -1 -1 -1 -1 -1 -1 -1 -1 -1 -1 -1 -1 -1 -1 -1 -1 -1 -1 -1 -1 -1 -1 -1 -1 -2 -1 -2 -1 -1 -1
1 -0 -0 -1 -2 -2 -1 -1 -1 -1 -1 -1 -1 -1 -1 -1 -2 -2 -1 -1 -1 -1 -1 -1 -1 -1 -1 -1 -1 -1 -1 -1 -1 -1 -1 -1 -1 -2 -1 -1 -1 -1 -1
2 1 1 0 -0 -1 -1 -2 -0 0 -0 -0 -0 -2 -1 -0 -0 -1 -1 -1 -1 -1 -2 -2 -2 -1 -1 -1 -1 -1 -1 -1 -1 -1 -1 -1 -2 -2 -1 -1 -1 -1 -1
3 2 2 1 1 1 0 0 0 0 -0 -0 -1 -1 0 0 0 -0 -0 -1 -1 -1 -1 -1 -1 -1 -1 -1 -1 -1 -1 -1 -1 -1 -1 -1 -1 -3 -2 -2 -1 -1 -1
4 3 3 3 2 2 2 2 2 2 2 2 1 1 2 2 2 2 1 1 1 0 -0 -1 -2 -1 -0 -1 -1 -1 -1 -1 -1 -1 -1 -1 -1 -2 -1 -2 -2 -1 -1
6 5 5 5 4 4 3 4 3 3 3 3 3 3 3 4 3 3 3 2 2 2 2 1 1 1 0 -0 0 1 1 1 -1 -1 -1 -1 -2 -2 -2 -1 -2 -2 -1
7 7 6 6 6 5 5 5 5 4 4 4 5 5 5 5 5 5 5 4 3 3 3 2 2 2 2 2 2 2 2 2 2 -1 -1 -1 -2 -1 -1 -1 -1 -2 -1
8 8 7 7 7 7 7 6 6 6 6 6 6 7 7 6 7 7 6 6 5 4 4 4 3 3 3 3 3 3 3 2 0 -1 -1 -1 -2 -1 -2 -2 -2 -1 -1
9 8 8 8 7 7 8 8 7 7 8 8 7 8 6 7 7 7 7 7 6 6 5 5 4 4 4 3 2 3 3 3 2 1 -1 -1 -1 -1 -2 -2 -2 -2 -2
9 9 8 8 8 8 9 8 8 8 8 7 7 7 7 7 8 8 7 7 7 7 6 6 5 5 5 6 5 4 5 5 5 4 2 -1 -2 -2 -2 -2 -2 -2 -2
8 9 9 9 8 8 9 8 8 8 8 8 8 8 8 8 8 8 8 8 7 7 8 8 8 7 7 6 6 6 5 5 5 5 4 1 1 -0 -2 -2 -2 -2 -2
8 9 9 9 9 8 8 8 8 8 8 8 8 9 8 8 9 9 9 9 8 8 8 8 8 7 7 7 6 6 6 6 5 5 4 3 2 2 0 -1 -2 -2 -2
9 9 10 9 9 9 9 9 9 9 9 9 9 9 9 9 10 10 10 9 9 9 10 10 9 9 8 7 7 7 6 6 6 6 5 4 2 3 2 1 -1 -2 -2
9 9 9 10 9 9 9 9 9 9 9 9 9 10 10 10 10 11 10 10 10 10 10 10 10 10 9 8 8 8 8 7 6 6 5 5 3 2 3 2 1 -0 -2
9 9 10 10 9 10 10 9 9 9 10 10 10 10 11 11 11 11 11 11 11 11 11 11 10 10 10 9 9 8 8 7 7 7 6 5 5 3 2 3 2 1 -0
9 10 10 10 10 10 10 10 10 10 10 10 11 11 11 12 12 12 12 12 11 11 11 11 11 11 11 10 10 9 9 8 8 7 7 6 5 5 4 3 3 2 1
9 10 10 10 11 10 10 10 10 10 11 11 11 11 12 12 12 12 12 12 12 12 12 12 12 12 12 11 10 10 10 9 8 8 7 6 6 5 5 4 3 3 3
9 10 10 10 11 10 10 11 11 11 11 11 12 12 12 13 13 13 13 13 12 13 12 12 13 12 12 11 12 12 10 9 8 8 7 7 5 5 4 4 3 3 2
9 10 11 11 11 11 11 12 12 12 12 12 12 12 13 13 13 13 13 13 13 13 13 13 13 13 12 12 13 12 11 10 9 8 6 6 6 5 4 4 4 3 3
10 10 11 11 11 11 11 11 11 12 12 12 12 13 13 13 13 14 14 14 14 14 14 13 13 14 13 12 14 14 13 12 9 10 9 8 6 7 6 5 4 4 3
11 11 11 11 11 11 11 12 13 13 14 14 14 13 13 13 13 14 14 14 14 14 14 14 13 14 15 13 13 15 16 15 14 10 10 9 8 8 8 8 6 6 5
11 10 11 11 12 11 12 13 14 14 15 14 13 13 13 13 14 14 14 14 15 14 14 14 14 14 14 15 14 13 12 13 16 16 11 11 10 9 9 8 7 6 6
11 11 11 11 12 12 12 13 13 14 13 13 14 14 14 14 14 15 15 15 15 15 14 14 15 15 14 15 15 14 14 14 13 14 16 14 11 10 9 9 9 8 7
10 11 11 12 13 12 13 13 13 13 14 14 15 15 15 14 15 15 15 15 16 16 15 15 15 15 15 15 15 15 15 15 15 14 14 14 14 13 11 10 9 9 7